GW1618 Weather Reports


time (UTC)temp
C
wind
direction
speed
KPH
gust
KPH
rain 1hr
cm
rain 24hr
cm
rain mn
cm
humidity
%
barometer
mb
20260502204505 18 322 6.4 9.7 0.00 0.00 0.00 57 1014.5
20260502204256 18 359 6.4 9.7 0.00 0.00 0.00 59 1014.5
20260502203500 18 322 8.0 11.3 0.00 0.00 0.00 58 1014.7
20260502202959 18 351 8.0 16.1 0.00 0.00 0.00 59 1014.7
20260502202453 18 342 6.4 16.1 0.00 0.00 0.00 58 1014.7
20260502201945 18 335 6.4 12.9 0.00 0.00 0.00 60 1014.9
20260502201444 18 34 9.7 14.5 0.00 0.00 0.00 59 1014.9
20260502200940 18 333 8.0 14.5 0.00 0.00 0.00 59 1014.9
20260502200442 18 14 6.4 12.9 0.00 0.00 0.00 61 1015.0
20260502195940 17 17 6.4 14.5 0.00 0.00 0.00 60 1015.0
20260502195436 17 9 4.8 14.5 0.00 0.00 0.00 61 1015.0
20260502194938 17 359 6.4 9.7 0.00 0.00 0.00 62 1015.1
20260502194437 17 9 8.0 17.7 0.00 0.00 0.00 62 1015.1
20260502193934 17 350 9.7 17.7 0.00 0.00 0.00 62 1015.1
20260502193437 17 21 8.0 16.1 0.00 0.00 0.00 63 1015.3
20260502192933 16 324 8.0 16.1 0.00 0.00 0.00 64 1015.3
20260502192430 16 61 9.7 16.1 0.00 0.00 0.00 67 1015.3
20260502191931 16 33 11.3 19.3 0.00 0.00 0.00 66 1015.5
20260502191429 16 359 9.7 19.3 0.00 0.00 0.00 67 1015.5
20260502190932 16 4 9.7 17.7 0.00 0.00 0.00 67 1015.5
20260502190429 15 345 8.0 16.1 0.00 0.00 0.00 67 1015.7
20260502190218 15 9 6.4 11.3 0.00 0.00 0.00 68 1015.7
20260502185713 15 339 6.4 11.3 0.00 0.00 0.00 70 1015.7
20260502185209 15 9 6.4 9.7 0.00 0.00 0.00 70 1015.9
20260502184651 15 325 4.8 8.0 0.00 0.00 0.00 70 1015.9
20260502183903 14 41 6.4 9.7 0.00 0.00 0.00 70 1015.9
20260502183359 14 337 6.4 11.3 0.00 0.00 0.00 71 1016.0
20260502182848 14 13 4.8 11.3 0.00 0.00 0.00 73 1016.0
20260502182346 13 9 4.8 8.0 0.00 0.00 0.00 74 1016.0
20260502181841 13 315 4.8 8.0 0.00 0.00 0.00 74 1016.1
20260502181340 13 359 6.4 8.0 0.00 0.00 0.00 76 1016.1
20260502180840 13 28 6.4 9.7 0.00 0.00 0.00 77 1016.1
20260502180340 12 344 8.0 9.7 0.00 0.00 0.00 77 1016.3
20260502170330 11 359 6.4 9.7 0.00 0.00 0.00 84 1016.5
20260502170112 11 354 6.4 11.3 0.00 0.00 0.00 84 1016.5
20260502164328 11 335 6.4 9.7 0.00 0.00 0.00 85 1016.5
20260502163821 10 348 6.4 9.7 0.00 0.00 0.00 85 1016.5
20260502163311 10 335 6.4 9.7 0.00 0.00 0.00 86 1016.5
20260502162802 10 338 6.4 8.0 0.00 0.00 0.00 86 1016.5
20260502162304 10 359 6.4 8.0 0.00 0.00 0.00 86 1016.5
20260502161756 10 4 6.4 11.3 0.00 0.00 0.00 86 1016.5
20260502161256 10 359 6.4 11.3 0.00 0.00 0.00 87 1016.5
20260502161034 10 359 6.4 11.3 0.00 0.00 0.00 87 1016.5
20260502160247 10 9 8.0 11.3 0.00 0.00 0.00 88 1016.5
20260502152247 10 337 3.2 6.4 0.00 0.00 0.00 87 1016.5
20260502152031 10 9 1.6 6.4 0.00 0.00 0.00 87 1016.5
20260502151245 10 60 3.2 9.7 0.00 0.00 0.00 87 1016.5
20260502150745 10 59 4.8 9.7 0.00 0.00 0.00 87 1016.5
20260502150233 10 19 3.2 8.0 0.00 0.00 0.00 87 1016.5
20260502130615 10 18 3.2 6.4 0.00 0.00 0.00 87 1016.0
20260502130115 10 17 3.2 6.4 0.00 0.00 0.00 87 1016.0
20260502123602 10 30 3.2 4.8 0.00 0.00 0.00 87 1016.1
20260502123100 10 9 1.6 4.8 0.00 0.00 0.00 87 1016.2
20260502122601 10 25 1.6 4.8 0.00 0.00 0.00 87 1016.2
20260502122101 10 14 3.2 4.8 0.00 0.00 0.00 87 1016.2
20260502121601 10 359 1.6 4.8 0.00 0.00 0.00 87 1016.4
20260502121105 10 328 1.6 3.2 0.00 0.00 0.00 86 1016.4
20260502120834 10 323 1.6 4.8 0.00 0.00 0.00 86 1016.4
20260502115601 10 242 0.0 3.2 0.00 0.00 0.00 86 1016.5
20260502115106 10 242 1.6 3.2 0.00 0.00 0.00 86 1016.5
20260502114606 10 242 1.6 4.8 0.00 0.00 0.00 86 1016.5
20260502114104 10 265 3.2 4.8 0.00 0.00 0.00 86 1016.5
20260502113601 10 258 3.2 4.8 0.00 0.00 0.00 85 1016.5
20260502113102 10 249 3.2 4.8 0.00 0.00 0.00 85 1016.3
20260502112835 10 258 1.6 4.8 0.00 0.00 0.00 85 1016.3
20260502112059 10 161 1.6 4.8 0.00 0.00 0.00 85 1016.0
20260502111555 10 234 3.2 4.8 0.00 0.00 0.00 85 1016.0
20260502111055 10 306 3.2 6.4 0.00 0.00 0.00 85 1016.0
20260502110547 10 324 4.8 6.4 0.00 0.00 0.00 85 1016.1
20260502110045 10 312 3.2 4.8 0.00 0.00 0.00 85 1016.1
20260502105543 10 294 3.2 4.8 0.00 0.00 0.00 84 1016.1
20260502105045 10 306 3.2 6.4 0.00 0.00 0.00 84 1016.7
20260502104825 10 269 3.2 6.4 0.00 0.00 0.00 84 1016.7
20260502104032 10 223 3.2 6.4 0.00 0.00 0.00 83 1016.7
20260502103818 10 181 4.8 8.0 0.00 0.00 0.00 83 1017.0
20260502103032 10 198 6.4 12.9 0.00 0.00 0.00 83 1017.0
20260502102530 10 166 6.4 12.9 0.00 0.00 0.00 83 1017.0
20260502102035 10 157 6.4 9.7 0.00 0.00 0.00 83 1017.0
20260502101533 10 211 6.4 9.7 0.00 0.00 0.00 83 1017.0
20260502101029 10 178 6.4 9.7 0.00 0.00 0.00 84 1017.0
20260502100529 10 161 3.2 9.7 0.00 0.00 0.00 84 1016.5
20260502091450 10 55 1.6 4.8 0.00 0.00 0.00 83 1016.2
20260502090951 10 55 3.2 4.8 0.00 0.00 0.00 83 1016.2
20260502090449 10 16 3.2 4.8 0.00 0.00 0.00 83 1016.4
20260502071335 11 144 4.8 9.7 0.00 0.00 0.00 77 1016.1
20260502070833 11 170 4.8 8.0 0.00 0.00 0.00 77 1016.1
20260502070333 11 148 3.2 8.0 0.00 0.00 0.00 76 1016.1
20260502065833 11 159 3.2 8.0 0.00 0.00 0.00 76 1016.1
20260502065613 11 179 1.6 4.8 0.00 0.00 0.00 77 1016.1
20260502064831 12 317 1.6 4.8 0.00 0.00 0.00 78 1016.0
20260502064334 12 296 1.6 3.2 0.00 0.00 0.00 77 1016.0
20260502063830 12 225 1.6 4.8 0.00 0.00 0.00 75 1016.0
20260502063331 12 178 3.2 6.4 0.00 0.00 0.00 75 1016.0
20260502063105 12 158 3.2 6.4 0.00 0.00 0.00 75 1016.0
20260502062324 12 148 3.2 6.4 0.00 0.00 0.00 75 1016.0
20260502061820 12 165 4.8 8.0 0.00 0.00 0.00 74 1016.0
20260502061603 12 159 4.8 8.0 0.00 0.00 0.00 74 1016.0
20260502060820 12 182 3.2 8.0 0.00 0.00 0.00 75 1016.0
20260502060322 12 151 1.6 6.4 0.00 0.00 0.00 76 1016.0
20260502055817 12 241 1.6 4.8 0.00 0.00 0.00 76 1016.0
20260502055305 12 313 1.6 3.2 0.00 0.00 0.00 75 1016.0
20260502054806 12 318 1.6 3.2 0.00 0.00 0.00 75 1016.0
20260502054306 12 318 3.2 4.8 0.00 0.00 0.00 75 1016.0
20260502053801 12 309 3.2 6.4 0.00 0.00 0.00 74 1016.0
20260502053259 12 285 3.2 6.4 0.00 0.00 0.00 75 1016.0
20260502052747 12 346 3.2 6.4 0.00 0.00 0.00 74 1016.0
20260502052233 12 335 3.2 4.8 0.00 0.00 0.00 74 1016.0
20260502051732 12 32 3.2 6.4 0.00 0.00 0.00 75 1016.0
20260502051234 12 359 4.8 6.4 0.00 0.00 0.00 74 1016.0
20260502050733 13 9 3.2 4.8 0.00 0.00 0.00 74 1016.0
20260502050232 13 4 3.2 6.4 0.00 0.00 0.00 74 1016.0
20260502045729 13 346 4.8 9.7 0.00 0.00 0.00 73 1016.0
20260502045229 13 334 3.2 9.7 0.00 0.00 0.00 74 1016.0
20260502045018 13 323 3.2 8.0 0.00 0.00 0.00 74 1015.8
20260502044229 13 355 3.2 8.0 0.00 0.00 0.00 74 1015.8
20260502043733 13 13 4.8 9.7 0.00 0.00 0.00 74 1015.8
20260502043221 13 4 4.8 9.7 0.00 0.00 0.00 75 1015.5
20260502042734 13 29 6.4 16.1 0.00 0.00 0.00 75 1015.5
20260502041705 13 16 12.9 19.3 0.00 0.00 0.00 74 1015.4
20260502041206 13 359 12.9 20.9 0.00 0.00 0.00 74 1015.4
20260502040953 14 25 14.5 20.9 0.00 0.00 0.00 73 1015.4
20260502040451 14 32 12.9 19.3 0.00 0.00 0.00 72 1015.0
20260502035703 14 30 11.3 19.3 0.00 0.00 0.00 72 1015.0
20260502035201 14 26 12.9 20.9 0.00 0.00 0.00 71 1015.0
20260502034704 15 13 14.5 20.9 0.00 0.00 0.00 71 1014.8
20260502034159 15 20 16.1 20.9 0.00 0.00 0.00 70 1014.8
20260502033648 15 27 14.5 20.9 0.00 0.00 0.00 69 1014.8
20260502033132 15 26 12.9 20.9 0.00 0.00 0.00 69 1014.5
20260502032630 15 16 12.9 17.7 0.00 0.00 0.00 68 1014.5
20260502032130 15 359 12.9 17.7 0.00 0.00 0.00 67 1014.5
20260502031628 16 33 12.9 17.7 0.00 0.00 0.00 67 1014.4
20260502031131 16 18 9.7 17.7 0.00 0.00 0.00 64 1014.4
20260502030629 16 9 8.0 17.7 0.00 0.00 0.00 63 1014.4
20260502030128 16 35 6.4 12.9 0.00 0.00 0.00 64 1014.0
20260502025628 17 15 4.8 11.3 0.00 0.00 0.00 60 1014.0
20260502025131 17 335 6.4 11.3 0.00 0.00 0.00 59 1014.0
20260502024636 17 326 8.0 11.3 0.00 0.00 0.00 55 1013.9
20260502024119 17 334 8.0 16.1 0.00 0.00 0.00 54 1013.9
20260502023610 17 339 8.0 19.3 0.00 0.00 0.00 55 1013.9
20260502023106 17 354 8.0 19.3 0.00 0.00 0.00 54 1013.7
20260502022604 18 353 8.0 17.7 0.00 0.00 0.00 53 1013.7
20260502022105 18 340 8.0 17.7 0.00 0.00 0.00 53 1013.7
20260502021606 18 348 8.0 17.7 0.00 0.00 0.00 53 1013.4
20260502021102 18 337 8.0 16.1 0.00 0.00 0.00 53 1013.4
20260502020852 18 352 9.7 17.7 0.00 0.00 0.00 53 1013.4
20260502020355 18 348 11.3 22.5 0.00 0.00 0.00 53 1013.4
20260502015849 18 319 14.5 25.7 0.00 0.00 0.00 53 1013.4
20260502015109 18 288 14.5 25.7 0.00 0.00 0.00 53 1013.4
20260502014608 18 298 12.9 22.5 0.00 0.00 0.00 53 1013.3
20260502014107 19 333 16.1 25.7 0.00 0.00 0.00 52 1013.3
20260502013555 19 316 17.7 25.7 0.00 0.00 0.00 51 1013.3
20260502013051 19 306 17.7 29.0 0.00 0.00 0.00 51 1013.3
20260502012549 19 290 19.3 29.0 0.00 0.00 0.00 50 1013.3
20260502012036 19 302 19.3 29.0 0.00 0.00 0.00 50 1013.4
20260502011534 20 292 20.9 29.0 0.00 0.00 0.00 50 1013.4
20260502011312 20 294 19.3 27.4 0.00 0.00 0.00 50 1013.4
20260502010522 20 308 17.7 30.6 0.00 0.00 0.00 49 1013.4
20260502010011 20 308 14.5 30.6 0.00 0.00 0.00 49 1013.4
20260502005508 21 305 14.5 22.5 0.00 0.00 0.00 50 1013.4
20260502005008 21 340 16.1 25.7 0.00 0.00 0.00 50 1013.3
20260502004513 21 328 17.7 25.7 0.00 0.00 0.00 50 1013.3
20260502004007 21 296 19.3 29.0 0.00 0.00 0.00 48 1013.3
20260502003510 21 359 16.1 29.0 0.00 0.00 0.00 47 1013.2
20260502003008 22 305 12.9 22.5 0.00 0.00 0.00 47 1013.2
20260502002507 22 327 11.3 24.1 0.00 0.00 0.00 46 1013.2
20260502002003 22 359 11.3 24.1 0.00 0.00 0.00 46 1013.3
20260502001503 22 347 12.9 20.9 0.00 0.00 0.00 47 1013.3
20260502001002 21 359 12.9 20.9 0.00 0.00 0.00 47 1013.3
20260502000501 21 308 14.5 22.5 0.00 0.00 0.00 46 1013.3
20260502000001 21 335 12.9 22.5 0.00 0.00 0.00 46 1013.3
20260501235501 22 323 12.9 20.9 0.00 0.00 0.00 46 1013.3
20260501235001 22 326 16.1 25.7 0.00 0.00 0.00 45 1013.3
20260501234502 22 310 16.1 25.7 0.00 0.00 0.00 44 1013.3
20260501234004 22 319 14.5 24.1 0.00 0.00 0.00 44 1013.3
20260501233737 22 347 11.3 22.5 0.00 0.00 0.00 43 1013.4
20260501232948 23 23 11.3 16.1 0.00 0.00 0.00 41 1013.4
20260501232443 23 329 11.3 20.9 0.00 0.00 0.00 40 1013.4
20260501231941 23 328 11.3 20.9 0.00 0.00 0.00 41 1013.4
20260501231438 23 321 9.7 19.3 0.00 0.00 0.00 42 1013.4
20260501230936 22 9 12.9 22.5 0.00 0.00 0.00 41 1013.4
20260501230430 22 349 11.3 22.5 0.00 0.00 0.00 41 1013.7
20260501230212 23 354 8.0 20.9 0.00 0.00 0.00 41 1013.7
20260501225429 22 341 11.3 19.3 0.00 0.00 0.00 42 1013.7
20260501224928 22 32 11.3 19.3 0.00 0.00 0.00 42 1013.9
20260501224429 22 344 9.7 19.3 0.00 0.00 0.00 44 1013.9
20260501223930 22 359 9.7 16.1 0.00 0.00 0.00 42 1013.9
20260501223435 22 18 11.3 17.7 0.00 0.00 0.00 45 1013.9
20260501222933 22 334 11.3 17.7 0.00 0.00 0.00 45 1013.9
20260501222430 22 15 11.3 17.7 0.00 0.00 0.00 45 1013.9
20260501222207 22 35 12.9 17.7 0.00 0.00 0.00 45 1014.0
20260501221428 22 353 12.9 19.3 0.00 0.00 0.00 45 1014.0
20260501220929 22 43 11.3 19.3 0.00 0.00 0.00 46 1014.0
20260501220428 22 32 11.3 19.3 0.00 0.00 0.00 44 1014.3
20260501215931 22 15 11.3 16.1 0.00 0.00 0.00 46 1014.3
20260501215427 21 9 12.9 20.9 0.00 0.00 0.00 47 1014.3
20260501214913 21 23 9.7 20.9 0.00 0.00 0.00 47 1014.4
20260501214414 21 355 8.0 16.1 0.00 0.00 0.00 47 1014.4
20260501213916 21 25 9.7 16.1 0.00 0.00 0.00 48 1014.4
20260501213659 21 16 8.0 11.3 0.00 0.00 0.00 48 1014.6
20260501213157 21 15 6.4 11.3 0.00 0.00 0.00 49 1014.6
20260501212417 21 19 6.4 11.3 0.00 0.00 0.00 48 1014.6
20260501212149 21 9 6.4 9.7 0.00 0.00 0.00 47 1014.9
20260501211410 20 359 6.4 11.3 0.00 0.00 0.00 49 1014.9
20260501210909 20 16 6.4 11.3 0.00 0.00 0.00 48 1014.9
20260501210406 20 354 4.8 8.0 0.00 0.00 0.00 47 1014.9
20260501205906 20 17 4.8 9.7 0.00 0.00 0.00 48 1014.9
20260501205408 20 359 6.4 9.7 0.00 0.00 0.00 47 1014.9